sat.trackr.live / text

‹ back to catalog

STARLINK-3835

NORAD 52476 · 2022-049AB

PAYLOAD ACTIVE UNKNOWN

§ Identity

Operator
Country
US
Launch date
2022-05-06
Launch site
AFETR
Launch vehicle
Mass (kg)
RCS (m²)

Purposes: comms

External: N2YO · Heavens-Above · Gunter

§ Orbital elements

Epoch: 2026-09-20T05:10:37.241184Z

Period
93.79 min
Inclination
53.1594°
Eccentricity
0.0001016
Mean motion
15.35381307 rev/d
Perigee alt
459.1 km
Apogee alt
460.5 km
Semi-major
6,837.9 km
B*
-3.2280e-5
RAAN
245.5208°
Arg perigee
94.4058°
Mean anomaly
265.7061°
Rev number
24,313

§ Raw data

STARLINK-38351 52476U 22049AB  26263.21570881 -.00001505  00000+0 -32280-4 0  99932 52476  53.1594 245.5208 0001016  94.4058 265.7061 15.35381307243133

JSON: /api/v1/satellites/52476 · /tle

For live sub-satellite position, see the globe view (requires WebGL).

§ Visibility from observer

Set your observer location to see the next 7 days of passes ≥ 10°. The values pass through the URL so the page stays shareable.

No JS? Fill the form by hand. The geolocation button needs JavaScript.